Location: Juzet
(42.9779°N, 0.7597°E)
Time: 18:49:54
(UTC+00:00)

Resurs 1-4 Rocket - Pass Details

Date: 14 July 2020
Orbit: 800 x 814 km, 98.6° (Epoch: 12 August)

Event Time Altitude Azimuth Distance (km) Brightness Sun altitude
Rises 03:03:32 0° 358° (N) 3,346 6.1 -13.2°
Reaches altitude 10° 03:06:34 10° 341° (NNW) 2,408 4.9 -12.8°
Maximum altitude 03:10:02 18° 300° (WNW) 1,902 3.9 -12.4°
Enters shadow 03:13:26 10° 259° (W) 2,379 4.1 -12.0°
